Location: Lancaster
(54.0470°N, 2.8020°W)
Time: 01:30:27
(UTC+01:00)

COSMOS 2428 - Visible Passes

Search period start: 25 July 2017 00:00
Search period end: 04 August 2017 00:00
Orbit: 843 x 859 km, 70.9° (Epoch: 24 July)

Date Brightness Start Highest point End Pass type
(mag) Time Alt. Az. Time Alt. Az. Time Alt. Az.
25 Jul 4.4 03:29:43 10° SSE 03:34:22 26° ESE 03:39:02 10° NE visible
26 Jul 4.4 03:17:37 10° SSE 03:22:15 26° ESE 03:26:55 10° NE visible
27 Jul 4.3 03:05:29 10° SSE 03:10:08 26° ESE 03:14:48 10° NE visible
28 Jul 4.3 02:53:22 10° SSE 02:58:01 26° ESE 03:02:41 10° NE visible
29 Jul 4.3 02:41:35 11° SSE 02:45:54 26° ESE 02:50:35 10° NE visible
29 Jul 2.9 04:23:57 10° SW 04:29:42 73° NW 04:35:29 10° NNE visible
30 Jul 4.2 02:29:54 13° SSE 02:33:48 26° ESE 02:38:28 10° NE visible
30 Jul 2.9 04:11:55 10° SW 04:17:36 73° NW 04:23:22 10° NNE visible
31 Jul 4.2 02:18:11 15° SSE 02:21:41 26° ESE 02:26:21 10° NE visible
31 Jul 2.9 04:00:12 12° SW 04:05:28 73° NW 04:11:15 10° NNE visible
01 Aug 4.2 02:06:26 17° SSE 02:09:34 26° ESE 02:14:15 10° NE visible
01 Aug 2.9 03:48:27 15° SW 03:53:21 73° NW 03:59:08 10° NNE visible
02 Aug 4.1 01:54:39 18° SE 01:57:26 26° ESE 02:02:08 10° NE visible
02 Aug 2.8 03:36:40 17° SW 03:41:15 73° NW 03:47:01 10° NNE visible
03 Aug 4.1 01:42:50 19° SE 01:45:19 26° ESE 01:50:01 10° NE visible
03 Aug 2.8 03:24:51 19° SW 03:29:08 73° NW 03:34:54 10° NNE visible
